Time,TemperatureF,DewpointF,PressureIn,WindDirection,WindDirectionDegrees,WindSpeedMPH,WindSpeedGustMPH,Humidity,HourlyPrecipIn,Conditions,Clouds,dailyrainin,SolarRadiationWatts/m^2,SoftwareType,DateUTC
2013-08-14 00:05:00,81.9,76.0,30.02,ESE,105,0.0,-999.0,81,-99.99,,,0.00,0,weatherlink.com 1.10,2013-08-14 04:05:00,
2013-08-14 00:20:00,81.8,76.0,30.02,ESE,105,0.0,-999.0,81,-99.99,,,0.00,0,weatherlink.com 1.10,2013-08-14 04:20:00,
2013-08-14 00:35:00,81.8,76.0,30.02,ESE,105,0.0,-999.0,82,-99.99,,,0.00,0,weatherlink.com 1.10,2013-08-14 04:35:00,
2013-08-14 00:50:00,81.6,76.0,30.02,ESE,105,0.0,-999.0,82,-99.99,,,0.00,0,weatherlink.com 1.10,2013-08-14 04:50:00,
2013-08-14 01:05:00,81.6,76.0,30.01,ESE,105,0.0,-999.0,82,-99.99,,,0.00,0,weatherlink.com 1.10,2013-08-14 05:05:00,
2013-08-14 01:20:00,81.7,76.0,30.00,ESE,105,0.0,-999.0,83,-99.99,,,0.00,0,weatherlink.com 1.10,2013-08-14 05:20:00,
2013-08-14 01:35:00,81.6,76.0,30.00,ESE,113,0.0,-999.0,83,-99.99,,,0.00,0,weatherlink.com 1.10,2013-08-14 05:35:00,
2013-08-14 01:50:00,80.2,75.0,29.99,ESE,113,0.0,-999.0,84,-99.99,,,0.00,0,weatherlink.com 1.10,2013-08-14 05:50:00,
2013-08-14 02:05:00,79.3,75.0,29.99,ESE,113,0.0,-999.0,86,-99.99,,,0.00,0,weatherlink.com 1.10,2013-08-14 06:05:00,
2013-08-14 02:20:00,78.7,75.0,29.99,ESE,113,0.0,-999.0,87,-99.99,,,0.00,0,weatherlink.com 1.10,2013-08-14 06:20:00,
2013-08-14 02:35:00,78.4,75.0,29.98,ESE,113,0.0,-999.0,88,-99.99,,,0.00,0,weatherlink.com 1.10,2013-08-14 06:35:00,
2013-08-14 02:50:00,78.1,75.0,29.98,ESE,113,0.0,-999.0,89,-99.99,,,0.00,0,weatherlink.com 1.10,2013-08-14 06:50:00,
2013-08-14 03:05:00,78.0,75.0,29.98,ESE,113,0.0,-999.0,90,-99.99,,,0.00,0,weatherlink.com 1.10,2013-08-14 07:05:00,
2013-08-14 03:20:00,77.8,75.0,29.97,ESE,113,0.0,-999.0,90,-99.99,,,0.00,0,weatherlink.com 1.10,2013-08-14 07:20:00,
2013-08-14 03:35:00,77.5,75.0,29.97,ESE,113,0.0,-999.0,91,-99.99,,,0.00,0,weatherlink.com 1.10,2013-08-14 07:35:00,
2013-08-14 03:50:00,77.4,75.0,29.96,ESE,113,0.0,-999.0,91,-99.99,,,0.00,0,weatherlink.com 1.10,2013-08-14 07:50:00,
2013-08-14 04:05:00,77.3,75.0,29.97,ESE,113,0.0,-999.0,91,-99.99,,,0.00,0,weatherlink.com 1.10,2013-08-14 08:05:00,
2013-08-14 04:20:00,77.1,75.0,29.96,ESE,113,0.0,-999.0,92,-99.99,,,0.00,0,weatherlink.com 1.10,2013-08-14 08:20:00,
2013-08-14 04:35:00,77.0,75.0,29.96,ESE,113,0.0,-999.0,92,-99.99,,,0.00,0,weatherlink.com 1.10,2013-08-14 08:35:00,
2013-08-14 04:50:00,76.9,75.0,29.96,ESE,113,0.0,-999.0,92,-99.99,,,0.00,0,weatherlink.com 1.10,2013-08-14 08:50:00,
2013-08-14 05:05:00,76.8,74.0,29.96,ESE,113,0.0,-999.0,92,-99.99,,,0.00,0,weatherlink.com 1.10,2013-08-14 09:05:00,
2013-08-14 05:20:00,76.6,75.0,29.96,ESE,113,0.0,-999.0,93,-99.99,,,0.00,0,weatherlink.com 1.10,2013-08-14 09:20:00,
2013-08-14 05:35:00,76.5,74.0,29.96,ESE,113,0.0,-999.0,93,-99.99,,,0.00,0,weatherlink.com 1.10,2013-08-14 09:35:00,
2013-08-14 05:50:00,76.3,74.0,29.96,ESE,113,0.0,-999.0,93,-99.99,,,0.00,0,weatherlink.com 1.10,2013-08-14 09:50:00,
2013-08-14 06:05:00,76.2,74.0,29.96,ESE,113,0.0,-999.0,93,-99.99,,,0.00,0,weatherlink.com 1.10,2013-08-14 10:05:00,
2013-08-14 06:22:00,76.3,74.0,29.96,ESE,113,0.0,-999.0,93,-99.99,,,0.00,0,weatherlink.com 1.10,2013-08-14 10:22:00,
2013-08-14 06:35:00,76.6,75.0,29.96,ESE,113,0.0,-999.0,93,-99.99,,,0.00,0,weatherlink.com 1.10,2013-08-14 10:35:00,
2013-08-14 06:50:00,76.8,75.0,29.97,ESE,120,0.0,-999.0,93,-99.99,,,0.00,0,weatherlink.com 1.10,2013-08-14 10:50:00,
2013-08-14 07:05:00,76.9,75.0,29.97,ESE,120,0.0,-999.0,93,-99.99,,,0.00,12,weatherlink.com 1.10,2013-08-14 11:05:00,
2013-08-14 07:20:00,77.0,75.0,29.97,ESE,120,0.0,-999.0,93,-99.99,,,0.00,19,weatherlink.com 1.10,2013-08-14 11:20:00,
2013-08-14 07:35:00,77.5,75.0,29.97,ESE,115,0.0,-999.0,92,-99.99,,,0.00,79,weatherlink.com 1.10,2013-08-14 11:35:00,
2013-08-14 07:50:00,78.6,76.0,29.97,ESE,115,0.0,-999.0,91,-99.99,,,0.00,134,weatherlink.com 1.10,2013-08-14 11:50:00,
2013-08-14 08:05:00,80.3,77.0,29.98,ESE,115,0.0,-999.0,89,-99.99,,,0.00,185,weatherlink.com 1.10,2013-08-14 12:05:00,
2013-08-14 08:21:00,81.9,77.0,29.97,ESE,115,0.0,-999.0,85,-99.99,,,0.00,239,weatherlink.com 1.10,2013-08-14 12:21:00,
2013-08-14 08:36:00,83.6,78.0,29.97,ESE,115,0.0,-999.0,83,-99.99,,,0.00,109,weatherlink.com 1.10,2013-08-14 12:36:00,
2013-08-14 08:51:00,83.8,77.0,29.97,ESE,117,0.0,-999.0,81,-99.99,,,0.00,427,weatherlink.com 1.10,2013-08-14 12:51:00,
2013-08-14 09:06:00,84.4,78.0,29.97,ESE,117,0.0,-999.0,80,-99.99,,,0.00,454,weatherlink.com 1.10,2013-08-14 13:06:00,
2013-08-14 09:21:00,86.1,78.0,29.97,ESE,111,0.0,-999.0,77,-99.99,,,0.00,197,weatherlink.com 1.10,2013-08-14 13:21:00,
2013-08-14 09:36:00,86.0,77.0,29.97,East,99,0.0,-999.0,74,-99.99,,,0.00,594,weatherlink.com 1.10,2013-08-14 13:36:00,
2013-08-14 09:51:00,86.7,78.0,29.97,East,101,0.0,-999.0,74,-99.99,,,0.00,719,weatherlink.com 1.10,2013-08-14 13:51:00,
2013-08-14 10:06:00,87.8,77.0,29.98,East,100,0.0,-999.0,70,-99.99,,,0.00,608,weatherlink.com 1.10,2013-08-14 14:06:00,
2013-08-14 10:21:00,88.2,77.0,29.98,East,89,0.0,-999.0,70,-99.99,,,0.00,645,weatherlink.com 1.10,2013-08-14 14:21:00,
2013-08-14 10:36:00,88.1,77.0,29.98,East,86,0.0,-999.0,70,-99.99,,,0.00,675,weatherlink.com 1.10,2013-08-14 14:36:00,
2013-08-14 10:51:00,88.5,77.0,29.98,South,189,0.0,-999.0,69,-99.99,,,0.00,719,weatherlink.com 1.10,2013-08-14 14:51:00,
2013-08-14 11:06:00,88.3,76.0,29.98,ESE,108,0.0,-999.0,68,-99.99,,,0.00,751,weatherlink.com 1.10,2013-08-14 15:06:00,
2013-08-14 11:21:00,88.7,76.0,29.99,ENE,74,2.0,-999.0,66,-99.99,,,0.00,803,weatherlink.com 1.10,2013-08-14 15:21:00,
2013-08-14 11:36:00,88.6,77.0,29.99,ESE,123,4.0,-999.0,69,-99.99,,,0.00,874,weatherlink.com 1.10,2013-08-14 15:36:00,
2013-08-14 11:51:00,89.6,78.0,29.99,ESE,104,0.0,-999.0,68,-99.99,,,0.00,865,weatherlink.com 1.10,2013-08-14 15:51:00,
2013-08-14 12:06:00,89.2,76.0,30.00,ESE,113,5.0,-999.0,66,-99.99,,,0.00,865,weatherlink.com 1.10,2013-08-14 16:06:00,
2013-08-14 12:21:00,89.8,78.0,30.00,East,84,1.0,-999.0,69,-99.99,,,0.00,916,weatherlink.com 1.10,2013-08-14 16:21:00,
2013-08-14 12:36:00,90.0,78.0,30.00,ENE,76,2.0,-999.0,67,-99.99,,,0.00,904,weatherlink.com 1.10,2013-08-14 16:36:00,
2013-08-14 13:06:00,89.8,77.0,29.99,ESE,108,5.0,-999.0,66,-99.99,,,0.00,916,weatherlink.com 1.10,2013-08-14 17:06:00,
2013-08-14 13:21:00,90.1,77.0,29.98,ESE,103,0.0,-999.0,66,-99.99,,,0.00,912,weatherlink.com 1.10,2013-08-14 17:21:00,
2013-08-14 13:36:00,91.2,77.0,29.98,East,95,0.0,-999.0,63,-99.99,,,0.00,916,weatherlink.com 1.10,2013-08-14 17:36:00,
2013-08-14 13:51:00,90.3,77.0,29.98,SE,128,0.0,-999.0,64,-99.99,,,0.00,912,weatherlink.com 1.10,2013-08-14 17:51:00,
2013-08-14 14:37:00,90.6,78.0,29.97,NE,55,3.0,-999.0,66,-99.99,,,0.00,944,weatherlink.com 1.10,2013-08-14 18:37:00,
2013-08-14 14:52:00,90.2,77.0,29.97,East,81,3.0,-999.0,65,-99.99,,,0.00,870,weatherlink.com 1.10,2013-08-14 18:52:00,
2013-08-14 15:07:00,91.2,77.0,29.96,ENE,67,0.0,-999.0,63,-99.99,,,0.00,835,weatherlink.com 1.10,2013-08-14 19:07:00,
2013-08-14 15:22:00,91.8,76.0,29.96,ESE,107,4.0,-999.0,61,-99.99,,,0.00,810,weatherlink.com 1.10,2013-08-14 19:22:00,
2013-08-14 15:37:00,91.3,76.0,29.95,East,89,0.0,-999.0,62,-99.99,,,0.00,791,weatherlink.com 1.10,2013-08-14 19:37:00,
2013-08-14 15:52:00,90.8,77.0,29.95,SW,215,0.0,-999.0,64,-99.99,,,0.00,761,weatherlink.com 1.10,2013-08-14 19:52:00,
2013-08-14 16:07:00,91.4,77.0,29.95,ESE,103,2.0,-999.0,62,-99.99,,,0.00,708,weatherlink.com 1.10,2013-08-14 20:07:00,
2013-08-14 16:22:00,90.5,77.0,29.95,East,86,1.0,-999.0,64,-99.99,,,0.00,671,weatherlink.com 1.10,2013-08-14 20:22:00,
2013-08-14 16:37:00,90.5,76.0,29.94,ENE,78,0.0,-999.0,62,-99.99,,,0.00,647,weatherlink.com 1.10,2013-08-14 20:37:00,
2013-08-14 16:52:00,89.9,77.0,29.94,ESE,115,0.0,-999.0,65,-99.99,,,0.00,390,weatherlink.com 1.10,2013-08-14 20:52:00,
2013-08-14 17:07:00,89.9,76.0,29.94,East,98,4.0,-999.0,64,-99.99,,,0.00,599,weatherlink.com 1.10,2013-08-14 21:07:00,
2013-08-14 17:22:00,89.6,76.0,29.93,ESE,115,0.0,-999.0,65,-99.99,,,0.00,499,weatherlink.com 1.10,2013-08-14 21:22:00,
2013-08-14 17:37:00,89.6,76.0,29.93,East,99,0.0,-999.0,65,-99.99,,,0.00,327,weatherlink.com 1.10,2013-08-14 21:37:00,
2013-08-14 17:52:00,89.2,76.0,29.93,SSE,159,0.0,-999.0,66,-99.99,,,0.00,424,weatherlink.com 1.10,2013-08-14 21:52:00,
2013-08-14 18:08:00,88.5,77.0,29.93,ESE,103,0.0,-999.0,68,-99.99,,,0.00,336,weatherlink.com 1.10,2013-08-14 22:08:00,
2013-08-14 18:22:00,88.3,76.0,29.94,East,98,0.0,-999.0,68,-99.99,,,0.00,223,weatherlink.com 1.10,2013-08-14 22:22:00,
2013-08-14 18:37:00,88.2,76.0,29.94,East,79,0.0,-999.0,68,-99.99,,,0.00,65,weatherlink.com 1.10,2013-08-14 22:37:00,
2013-08-14 18:52:00,87.8,77.0,29.95,ESE,105,0.0,-999.0,70,-99.99,,,0.00,62,weatherlink.com 1.10,2013-08-14 22:52:00,
2013-08-14 19:07:00,86.8,76.0,29.95,ESE,109,0.0,-999.0,71,-99.99,,,0.00,37,weatherlink.com 1.10,2013-08-14 23:07:00,
2013-08-14 19:22:00,86.1,76.0,29.95,East,99,0.0,-999.0,72,-99.99,,,0.00,39,weatherlink.com 1.10,2013-08-14 23:22:00,
2013-08-14 19:37:00,85.4,76.0,29.95,SE,132,0.0,-999.0,73,-99.99,,,0.00,18,weatherlink.com 1.10,2013-08-14 23:37:00,
2013-08-14 19:52:00,84.8,75.0,29.96,ESE,103,0.0,-999.0,73,-99.99,,,0.00,5,weatherlink.com 1.10,2013-08-14 23:52:00,
2013-08-14 20:07:00,84.4,75.0,29.96,SE,137,0.0,-999.0,74,-99.99,,,0.00,0,weatherlink.com 1.10,2013-08-15 00:07:00,
2013-08-14 20:22:00,84.2,76.0,29.97,ESE,120,0.0,-999.0,76,-99.99,,,0.00,0,weatherlink.com 1.10,2013-08-15 00:22:00,
2013-08-14 20:37:00,83.9,76.0,29.97,NE,56,0.0,-999.0,76,-99.99,,,0.00,0,weatherlink.com 1.10,2013-08-15 00:37:00,
2013-08-14 20:52:00,83.8,76.0,29.98,ESE,110,1.0,-999.0,77,-99.99,,,0.00,0,weatherlink.com 1.10,2013-08-15 00:52:00,
2013-08-14 21:07:00,83.8,76.0,29.98,ESE,119,0.0,-999.0,78,-99.99,,,0.00,0,weatherlink.com 1.10,2013-08-15 01:07:00,
2013-08-14 21:22:00,83.8,76.0,30.00,ESE,107,0.0,-999.0,78,-99.99,,,0.00,0,weatherlink.com 1.10,2013-08-15 01:22:00,
2013-08-14 21:37:00,83.1,75.0,30.01,ESE,110,2.0,-999.0,76,-99.99,,,0.00,0,weatherlink.com 1.10,2013-08-15 01:37:00,
2013-08-14 21:52:00,82.3,74.0,30.01,SE,140,0.0,-999.0,75,-99.99,,,0.00,0,weatherlink.com 1.10,2013-08-15 01:52:00,
2013-08-14 22:07:00,82.1,75.0,30.01,ESE,111,0.0,-999.0,80,-99.99,,,0.00,0,weatherlink.com 1.10,2013-08-15 02:07:00,
2013-08-14 22:22:00,81.9,76.0,30.02,ESE,111,0.0,-999.0,82,-99.99,,,0.00,0,weatherlink.com 1.10,2013-08-15 02:22:00,
2013-08-14 22:37:00,81.6,76.0,30.01,SE,144,0.0,-999.0,83,-99.99,,,0.00,0,weatherlink.com 1.10,2013-08-15 02:37:00,
2013-08-14 22:52:00,81.8,76.0,30.02,ESE,108,0.0,-999.0,82,-99.99,,,0.00,0,weatherlink.com 1.10,2013-08-15 02:52:00,
2013-08-14 23:07:00,81.7,75.0,30.02,ESE,103,0.0,-999.0,80,-99.99,,,0.00,0,weatherlink.com 1.10,2013-08-15 03:07:00,
2013-08-14 23:22:00,82.0,75.0,30.02,ESE,109,0.0,-999.0,80,-99.99,,,0.00,0,weatherlink.com 1.10,2013-08-15 03:22:00,
2013-08-14 23:37:00,82.0,75.0,30.01,ESE,111,0.0,-999.0,80,-99.99,,,0.00,0,weatherlink.com 1.10,2013-08-15 03:37:00,
2013-08-14 23:52:00,82.0,76.0,30.01,ESE,119,0.0,-999.0,81,-99.99,,,0.00,0,weatherlink.com 1.10,2013-08-15 03:52:00,